Stündliche Wetter Bolshie Klyuchi

Heute, 13 Mai, Donnerstag

Zeit Temperatur Niederschläge Wind Luftdruck Luftfeuchtigkeit
00:00 +18°C° 0 mm 1 m/S 758 mmHg 61%
01:00 +16°C° 0 mm 1 m/S 758 mmHg 61%
02:00 +16°C° 0 mm 1 m/S 758 mmHg 61%
03:00 +16°C° 0 mm 1 m/S 758 mmHg 61%
04:00 +16°C° 0 mm 2 m/S 758 mmHg 62%
05:00 +17°C° 0 mm 2 m/S 758 mmHg 62%
06:00 +18°C° 0 mm 2 m/S 758 mmHg 63%
07:00 +19°C° 0 mm 3 m/S 758 mmHg 56%
08:00 +21°C° 0 mm 3 m/S 758 mmHg 50%
09:00 +23°C° 0 mm 4 m/S 757 mmHg 43%
10:00 +25°C° 0 mm 5 m/S 757 mmHg 42%
11:00 +25°C° 0 mm 5 m/S 757 mmHg 41%
12:00 +26°C° 0 mm 6 m/S 757 mmHg 39%
13:00 +26°C° 0 mm 5 m/S 757 mmHg 41%
14:00 +26°C° 0 mm 5 m/S 756 mmHg 43%
15:00 +26°C° 0 mm 4 m/S 756 mmHg 45%
16:00 +25°C° 0 mm 4 m/S 756 mmHg 49%
17:00 +25°C° 0 mm 4 m/S 755 mmHg 53%
18:00 +23°C° 0 mm 4 m/S 755 mmHg 57%
19:00 +22°C° 0 mm 4 m/S 755 mmHg 58%
20:00 +22°C° 0 mm 5 m/S 755 mmHg 58%
21:00 +21°C° 0 mm 5 m/S 755 mmHg 59%
22:00 +20°C° 0 mm 5 m/S 755 mmHg 62%
23:00 +19°C° 0 mm 4 m/S 755 mmHg 64%

Morgen, 14 Mai, Freitag

Zeit Temperatur Niederschläge Wind Luftdruck Luftfeuchtigkeit
00:00 +19°C° 0 mm 4 m/S 755 mmHg 67%
01:00 +18°C° 0.4 mm 3 m/S 755 mmHg 72%
02:00 +17°C° 0.4 mm 3 m/S 755 mmHg 77%
03:00 +16°C° 0.4 mm 2 m/S 755 mmHg 82%
04:00 +16°C° 0 mm 2 m/S 755 mmHg 79%
05:00 +17°C° 0 mm 2 m/S 755 mmHg 76%
06:00 +18°C° 0 mm 3 m/S 755 mmHg 74%
07:00 +19°C° 0 mm 3 m/S 755 mmHg 68%
08:00 +21°C° 0 mm 3 m/S 755 mmHg 63%
09:00 +22°C° 0 mm 3 m/S 755 mmHg 58%
10:00 +24°C° 0 mm 3 m/S 755 mmHg 55%
11:00 +25°C° 0 mm 4 m/S 755 mmHg 53%
12:00 +27°C° 0 mm 4 m/S 755 mmHg 51%
13:00 +27°C° 0 mm 4 m/S 755 mmHg 50%
14:00 +27°C° 0 mm 3 m/S 755 mmHg 50%
15:00 +27°C° 0 mm 3 m/S 755 mmHg 50%
16:00 +26°C° 0 mm 3 m/S 755 mmHg 54%
17:00 +26°C° 0 mm 3 m/S 754 mmHg 57%
18:00 +25°C° 0 mm 2 m/S 754 mmHg 61%
19:00 +24°C° 0 mm 2 m/S 754 mmHg 63%
20:00 +21°C° 0 mm 2 m/S 754 mmHg 66%
21:00 +19°C° 0 mm 2 m/S 754 mmHg 68%
22:00 +19°C° 0 mm 2 m/S 754 mmHg 70%
23:00 +18°C° 0 mm 2 m/S 754 mmHg 72%

übermorgen, 15 Mai, Samstag

Zeit Temperatur Niederschläge Wind Luftdruck Luftfeuchtigkeit
00:00 +18°C° 0 mm 2 m/S 754 mmHg 74%
01:00 +17°C° 0 mm 2 m/S 754 mmHg 73%
02:00 +17°C° 0 mm 2 m/S 754 mmHg 73%
03:00 +17°C° 0 mm 2 m/S 754 mmHg 73%
04:00 +18°C° 0 mm 2 m/S 754 mmHg 71%
05:00 +18°C° 0 mm 2 m/S 754 mmHg 69%
06:00 +19°C° 0 mm 3 m/S 754 mmHg 67%
07:00 +21°C° 0 mm 3 m/S 754 mmHg 60%
08:00 +22°C° 0 mm 4 m/S 754 mmHg 53%
09:00 +25°C° 0 mm 4 m/S 754 mmHg 46%
10:00 +26°C° 0 mm 5 m/S 754 mmHg 42%
11:00 +27°C° 0 mm 5 m/S 754 mmHg 39%
12:00 +29°C° 0 mm 6 m/S 754 mmHg 36%
13:00 +29°C° 0 mm 6 m/S 754 mmHg 37%
14:00 +29°C° 0 mm 6 m/S 753 mmHg 38%
15:00 +29°C° 0 mm 5 m/S 753 mmHg 39%
16:00 +28°C° 0 mm 5 m/S 753 mmHg 42%
17:00 +27°C° 0 mm 5 m/S 753 mmHg 45%
18:00 +26°C° 0 mm 5 m/S 753 mmHg 48%
19:00 +23°C° 0 mm 4 m/S 753 mmHg 49%
20:00 +22°C° 0 mm 4 m/S 753 mmHg 50%
21:00 +20°C° 0 mm 4 m/S 752 mmHg 52%
22:00 +20°C° 0 mm 4 m/S 752 mmHg 53%
23:00 +19°C° 0 mm 3 m/S 752 mmHg 54%

16 Mai, Sonntag

Zeit Temperatur Niederschläge Wind Luftdruck Luftfeuchtigkeit
00:00 +18°C° 0 mm 3 m/S 752 mmHg 55%
01:00 +18°C° 0 mm 3 m/S 752 mmHg 56%
02:00 +17°C° 0 mm 3 m/S 752 mmHg 57%
03:00 +17°C° 0 mm 3 m/S 752 mmHg 58%
04:00 +18°C° 0 mm 3 m/S 752 mmHg 59%
05:00 +19°C° 0 mm 3 m/S 752 mmHg 59%
06:00 +19°C° 0 mm 3 m/S 752 mmHg 59%
07:00 +21°C° 0 mm 4 m/S 752 mmHg 55%
08:00 +23°C° 0 mm 4 m/S 752 mmHg 50%
09:00 +26°C° 0 mm 5 m/S 752 mmHg 45%
10:00 +27°C° 0 mm 5 m/S 752 mmHg 42%
11:00 +28°C° 0 mm 6 m/S 752 mmHg 39%
12:00 +29°C° 0 mm 6 m/S 752 mmHg 36%
13:00 +29°C° 0 mm 6 m/S 752 mmHg 37%
14:00 +30°C° 0 mm 5 m/S 752 mmHg 37%
15:00 +30°C° 0 mm 5 m/S 751 mmHg 38%
16:00 +28°C° 0 mm 4 m/S 751 mmHg 44%
17:00 +27°C° 0 mm 3 m/S 751 mmHg 49%
18:00 +26°C° 0 mm 3 m/S 751 mmHg 55%
19:00 +24°C° 0 mm 2 m/S 751 mmHg 60%
20:00 +23°C° 0 mm 2 m/S 751 mmHg 66%
21:00 +20°C° 0 mm 2 m/S 751 mmHg 71%
22:00 +19°C° 0 mm 2 m/S 751 mmHg 73%
23:00 +19°C° 0 mm 2 m/S 751 mmHg 75%

17 Mai, Montag

Zeit Temperatur Niederschläge Wind Luftdruck Luftfeuchtigkeit
00:00 +18°C° 0 mm 2 m/S 751 mmHg 77%
01:00 +18°C° 0 mm 2 m/S 752 mmHg 79%
02:00 +18°C° 0 mm 1 m/S 752 mmHg 81%
03:00 +18°C° 0 mm 1 m/S 752 mmHg 84%
04:00 +19°C° 0 mm 1 m/S 752 mmHg 81%
05:00 +19°C° 0 mm 1 m/S 753 mmHg 79%
06:00 +20°C° 0 mm 1 m/S 753 mmHg 76%
07:00 +22°C° 0 mm 1 m/S 753 mmHg 70%
08:00 +24°C° 0 mm 1 m/S 753 mmHg 64%
09:00 +25°C° 0 mm 1 m/S 753 mmHg 59%
10:00 +26°C° 0 mm 1 m/S 753 mmHg 54%
11:00 +28°C° 0 mm 2 m/S 753 mmHg 49%
12:00 +29°C° 0 mm 2 m/S 753 mmHg 43%
13:00 +29°C° 0 mm 2 m/S 753 mmHg 43%
14:00 +29°C° 0 mm 2 m/S 753 mmHg 42%
15:00 +30°C° 0 mm 3 m/S 753 mmHg 41%
16:00 +29°C° 0 mm 2 m/S 753 mmHg 46%
17:00 +28°C° 0 mm 2 m/S 752 mmHg 51%
18:00 +27°C° 0 mm 1 m/S 752 mmHg 56%
19:00 +25°C° 0.4 mm 2 m/S 753 mmHg 63%
20:00 +23°C° 0.4 mm 2 m/S 753 mmHg 69%
21:00 +20°C° 0.4 mm 2 m/S 753 mmHg 76%
22:00 +20°C° 0.1 mm 1 m/S 753 mmHg 77%
23:00 +20°C° 0.1 mm 1 m/S 753 mmHg 78%

18 Mai, Dienstag

Zeit Temperatur Niederschläge Wind Luftdruck Luftfeuchtigkeit
00:00 +18°C° 0.1 mm 0 m/S 753 mmHg 80%
01:00 +17°C° 0 mm 0 m/S 753 mmHg 80%
02:00 +17°C° 0 mm 0 m/S 753 mmHg 81%
03:00 +18°C° 0 mm 1 m/S 753 mmHg 82%
04:00 +19°C° 0 mm 1 m/S 754 mmHg 78%
05:00 +20°C° 0 mm 1 m/S 754 mmHg 74%
06:00 +21°C° 0 mm 1 m/S 754 mmHg 71%
07:00 +23°C° 0 mm 1 m/S 754 mmHg 64%
08:00 +25°C° 0 mm 2 m/S 754 mmHg 58%
09:00 +26°C° 0 mm 2 m/S 754 mmHg 52%
10:00 +28°C° 0 mm 2 m/S 754 mmHg 48%
11:00 +29°C° 0 mm 3 m/S 754 mmHg 44%
12:00 +30°C° 0 mm 3 m/S 754 mmHg 40%
13:00 +30°C° 0 mm 3 m/S 754 mmHg 38%
14:00 +30°C° 0 mm 3 m/S 754 mmHg 35%
15:00 +31°C° 0 mm 3 m/S 754 mmHg 33%
16:00 +30°C° 0 mm 3 m/S 754 mmHg 39%
17:00 +28°C° 0 mm 2 m/S 754 mmHg 44%
18:00 +27°C° 0 mm 2 m/S 754 mmHg 50%
19:00 +26°C° 0 mm 2 m/S 754 mmHg 52%
20:00 +24°C° 0 mm 2 m/S 754 mmHg 54%
21:00 +23°C° 0 mm 2 m/S 754 mmHg 56%
22:00 +21°C° 0 mm 2 m/S 754 mmHg 56%
23:00 +20°C° 0 mm 2 m/S 754 mmHg 57%
Mehr zeigen

Wir brauchen deine Erlaubnis

Meteoprog und unser Service Anbieter werden persönliche Daten aufbewahren, so wie Cookies, Geräte Bezeichnung oder ähnliche Technologien von deinem Gerät und Prozess, so wie Persönliche Daten Inhalte und Werbungen, genauso wie social Media und den Verkehr zu analysieren.

  • Aufbewahrung und/oder Zugang zu deiner Geräte Informationen.

    Cookies, Geräte Bezeichnung oder andere Informationen, können aufbewahrt oder Zugang zu deinem Gerät erhalten, für den Grund, der oben angegeben wird.

  • Personalisierte Werbung und Inhalte, Messungen, Einblick in das Publikum und Produkt Entwicklung.

    Werbungen und Inhalte können personalisiert werden, basierend auf ein Profil. Mehr Daten können besser personalisierte Werbungen und Inhalte hinzufügen. Werbung und Inhalte können gezeigt und gemessen werden. Einblicke über das Publikum, welche die Werbung gesehen haben und den Inhalt, können abgeleitet werden. So wie Daten können genutzt werden, um es zu verbessern oder die Benutzer Erfahrung zu verbessern das System und die Software.

Wenn du “Ich stimme zu” klickst, erlaubst du uns, die Cookies zu benutzen die Geräte Bezeichnung, den Web oder ähnliche Technologien zu benutzen. Deine Settings, können in deinem Gerät bei deinem Browser geändert werden.

Für den bestimmten Zweck, berechtigten Interessen beruhen darauf, mehr als auf den Inhalt. Du kannst mehr darüber in unseren Privaten und Cookie Politik lesen.